DIAMANT R/B, 2671

Orbit data source: Space-Track

DIAMANT R/B, 2671 is space debris in LEO originally from a launch on Wed, 08 Feb 1967 UTC launched from the Hamma Guira Space Track Range (HGSTR). Debris objects in space refer to the collection of defunct objects orbiting the Earth. Examples of debris include non-operational satellites, rocket bodies, and fragments generated from explosions, collisions, or faulty payload assembly.

Loading next visibility...
Identifier
2671, 1967-011B
Orbit
LEO
Country
Flag of FRFR
Related business
Manufacturer
Sud
Mission
Spacecraft
Bus & Motor
RUBIS, Unknown motor
Mass
65 kg wet, 65 kg dry
Launch date (UTC)
1967-02-08 (59 years ago)
Launch vehicle
Unknown
Launch site
Hamma Guira Space Track Range (HGSTR)
Object type
Payload
Rocket body
Debris
Shape & HBR
Unknown
Radar Cross Section
Large (>1 m²)

Expand to show TLE details & history
Last TLE update: 16 hours ago

TLE from 16 hours ago
0 DIAMANT R/B
1 02671U 67011B   26125.07357312  .00002321  00000-0  46161-3 0  9994
2 02671  39.9460   7.0161 0329353  72.4696 291.1776 14.34698070 49337
Epoch: 2026-05-05T01:45Z
TLE epoch observation values (Epoch: 2026-05-05T01:45:56.717Z)
Latitude
-0.00007°
Longitude
117.57605°
Altitude
697.283 km
Speed
7.55 km/s
True Right ascension
00h 28m 03s
True Declination
0° 00' 00"
Sunlit
Object was in daylight at epoch
Visualization orbit readout
Latitude
Unknown
Longitude
Unknown
Altitude
Unknown
Speed
Unknown
Apparent Right ascension
Unknown
Apparent Declination
Unknown
Sunlit
N/A
Visualization observer readout
Local Sidereal Time
01:24:31
Azimuth
Unknown
Elevation
Unknown
Doppler factor
Unknown
Orbital elements
Apogee altitude
1,014.132 km
Perigee altitude
542.724 km
Semi-major axis
7,156.565 km
Eccentricity
0.03294
Inclination
39.946°
RAAN
7.0161°
Arg. of periapsis
72.4696°
True anomaly
287.60759°
Mean anomaly
291.1776°
Eccentric anomaly
289.39766°
Mean motion
3.58498 °/min
Orbital period
100.42 mins
BSTAR
0.00046161
Loading maneuver chart data...
Computing Atmospheric mass density...

Documentation

Showing up to 5 results
|